Flood From: 19-02-2018 16:00 Until: 20-02-2018 16:00 warning for: Flood Level: Yellow info button

Although rather usual in this region, locally or potentially dangerous phenomena are expected. (such as local winds, summer thunderstorms, rising streams or high waves) Be aware and pay attention to the latest weather updates, especially if you carry out activities exposed to weather or close to a stream or shoreline. 


Meteo18 Weather Cam more information Meteo18 Weather Cam


Thunder radar more information blitzortung!


Rain radar more information rain snow radar


Visit our other weather sites:

Template documentation
and downloads

And another site



Weather Underground History page Text

Daily Summary for December 28, 2017 Units:  Metric    English   Both
« Previous Day
Next Day »
Daily Weekly Monthly Yearly Custom
  High: Low: Average:
Temperature: -17.8 °C -18.3 °C -17.2 °C
Dew Point: -17.8 °C -18.6 °C -17.9 °C
Humidity: Humidity % 84 % 90 %
Wind Speed: 0 km/h 0 km/h 6.4 km/h
Wind Gust: 0 km/h - -
Wind:- - WSW
Pressure: 0 hPa 33914.2 hPa -
Precipitation: 12.7 mm    
Historical Graphs
 
 
Tabular Data for December 28, 2017
Time Temperature Dew Point Pressure Wind Wind Speed Wind Gust Humidity Rainfall Rate (Hourly)
-17.8 °C -17.8 °C 0 hPa Calm     Humidity % 0 mm
00:04 -16.6 °C -17.8 °C 33914.2 hPa WNW 20.9 km/h 44.1 km/h 85 % 0 mm
00:11 -16.6 °C -17.9 °C 33914.2 hPa West 12.7 km/h 36.2 km/h 84 % 0 mm
00:17 -16.6 °C -17.9 °C 33914.2 hPa NW 31.4 km/h 44.1 km/h 84 % 0 mm
00:22 -16.6 °C -17.9 °C 33914.2 hPa WNW 20.9 km/h 28.5 km/h 84 % 0 mm
00:29 -16.7 °C -17.9 °C 33914.2 hPa West 33.6 km/h 46.7 km/h 85 % 0 mm
00:35 -16.7 °C -18 °C 33924.3 hPa WNW 17.9 km/h 38.8 km/h 85 % 0 mm
00:43 -16.8 °C -18.1 °C 33924.3 hPa NW 17.9 km/h 28.5 km/h 85 % 0 mm
00:49 -16.8 °C -18.1 °C 33924.3 hPa WNW 17.9 km/h 31.1 km/h 85 % 0 mm
00:55 -16.8 °C -18.1 °C 33924.3 hPa West 12.7 km/h 31.1 km/h 85 % 0 mm
00:57 -16.8 °C -18.1 °C 33924.3 hPa WNW 33.6 km/h 38.8 km/h 85 % 0 mm
01:03 -16.8 °C -18.1 °C 33914.2 hPa WNW 20.9 km/h 36.2 km/h 85 % 0 mm
01:05 -16.8 °C -18.1 °C 33924.3 hPa WNW 17.9 km/h 25.9 km/h 85 % 0 mm
01:11 -16.9 °C -18.1 °C 33924.3 hPa West 12.7 km/h 36.2 km/h 85 % 0 mm
01:17 -16.9 °C -18.1 °C 33924.3 hPa WNW 28.5 km/h 33.6 km/h 85 % 0 mm
01:23 -16.9 °C -18.1 °C 33924.3 hPa WNW 26.2 km/h 49.2 km/h 85 % 0 mm
01:29 -16.9 °C -18.1 °C 33924.3 hPa West 23 km/h 49.2 km/h 85 % 0 mm
01:35 -16.9 °C -18.2 °C 33937.9 hPa WNW 20.9 km/h 25.9 km/h 85 % 0 mm
01:41 -16.9 °C -18.1 °C 33937.9 hPa WNW 23 km/h 33.6 km/h 85 % 0 mm
01:47 -17 °C -18.2 °C 33937.9 hPa West 26.2 km/h 38.8 km/h 85 % 0 mm
01:53 -17 °C -18.2 °C 33937.9 hPa WNW 20.9 km/h 49.2 km/h 86 % 0 mm
01:59 -17 °C -18.2 °C 33937.9 hPa WNW 28.5 km/h 28.5 km/h 86 % 0 mm
02:05 -17 °C -18.2 °C 33937.9 hPa West 10.3 km/h 44.1 km/h 86 % 0 mm
02:11 -17 °C -18.2 °C 33937.9 hPa West 2.3 km/h 36.2 km/h 85 % 0 mm
02:17 -17.1 °C -18.2 °C 33948 hPa West 26.2 km/h 28.5 km/h 86 % 0 mm
02:23 -17.1 °C -18.2 °C 33948 hPa WNW 23 km/h 23.3 km/h 86 % 0 mm
02:29 -17.1 °C -18.2 °C 33948 hPa West 15.6 km/h 23.3 km/h 86 % 0 mm
02:35 -17.1 °C -18.2 °C 33948 hPa WNW 20.9 km/h 25.9 km/h 86 % 0 mm
02:41 -17.1 °C -18.2 °C 33958.2 hPa West 28.5 km/h 28.5 km/h 86 % 0 mm
02:47 -17.1 °C -18.2 °C 33958.2 hPa WNW 33.6 km/h 41.4 km/h 86 % 0 mm
02:53 -17.1 °C -18.2 °C 33958.2 hPa West 17.9 km/h 31.1 km/h 86 % 0 mm
02:59 -17.1 °C -18.3 °C 33958.2 hPa West 12.7 km/h 36.2 km/h 86 % 0 mm
03:05 -17.1 °C -18.3 °C 33958.2 hPa WSW 12.7 km/h 33.6 km/h 86 % 0 mm
03:11 -17.1 °C -18.2 °C 33958.2 hPa WNW 33.6 km/h 33.6 km/h 87 % 0 mm
03:17 -17.2 °C -18.2 °C 33958.2 hPa WNW 17.9 km/h 23.3 km/h 87 % 0 mm
03:23 -17.2 °C -18.2 °C 33971.7 hPa West 12.7 km/h 23.3 km/h 87 % 0 mm
03:29 -17.2 °C -18.3 °C 33958.2 hPa NNW 7.6 km/h 28.5 km/h 87 % 0 mm
03:35 -17.3 °C -18.3 °C 33971.7 hPa WSW 12.7 km/h 25.9 km/h 87 % 0 mm
03:41 -17.3 °C -18.3 °C 33971.7 hPa NW 26.2 km/h 28.5 km/h 87 % 0 mm
03:47 -17.3 °C -18.3 °C 33971.7 hPa NW 20.9 km/h 28.5 km/h 88 % 0 mm
03:53 -17.3 °C -18.3 °C 33971.7 hPa WNW 7.6 km/h 20.8 km/h 88 % 0 mm
03:59 -17.3 °C -18.3 °C 33981.9 hPa West 17.9 km/h 25.9 km/h 88 % 0 mm
04:05 -17.3 °C -18.3 °C 33981.9 hPa West 17.9 km/h 20.8 km/h 88 % 0 mm
04:07 -17.3 °C -18.3 °C 33981.9 hPa WNW 10.3 km/h 20.8 km/h 88 % 0 mm
04:19 -17.3 °C -18.3 °C 33981.9 hPa Calm   2.6 km/h 88 % 0 mm
04:25 -17.4 °C -18.4 °C 33981.9 hPa West 2.3 km/h 5.1 km/h 88 % 0 mm
04:31 -17.4 °C -18.4 °C 33981.9 hPa West 7.6 km/h 23.3 km/h 88 % 0 mm
04:37 -17.4 °C -18.4 °C 33981.9 hPa WSW 7.6 km/h 18.2 km/h 88 % 0 mm
04:49 -17.4 °C -18.4 °C 33992.1 hPa Calm   7.7 km/h 88 % 0 mm
04:55 -17.4 °C -18.4 °C 33992.1 hPa West 12.7 km/h 12.9 km/h 88 % 0 mm
05:01 -17.4 °C -18.3 °C 33992.1 hPa Calm   5.1 km/h 89 % 0 mm
05:07 -17.4 °C -18.3 °C 33992.1 hPa Calm   2.6 km/h 89 % 0 mm
05:13 -17.6 °C -18.4 °C 33992.1 hPa West 2.3 km/h 5.1 km/h 89 % 0 mm
05:17 -17.6 °C -18.4 °C 33992.1 hPa Calm     89 % 0 mm
05:23 -17.6 °C -18.5 °C 34005.6 hPa Calm   2.6 km/h 89 % 0 mm
05:29 -17.7 °C -18.4 °C 34005.6 hPa SSW 2.3 km/h 5.1 km/h 90 % 0 mm
05:35 -17.8 °C -18.6 °C 34005.6 hPa SW 2.3 km/h 5.1 km/h 90 % 0 mm
05:41 -17.9 °C -18.6 °C 34005.6 hPa SW 5.1 km/h 7.7 km/h 91 % 0 mm
05:47 -17.9 °C -18.6 °C 34015.8 hPa SW 2.3 km/h 5.1 km/h 91 % 0 mm
05:51 -17.9 °C -18.6 °C 34015.8 hPa Calm   2.6 km/h 91 % 0 mm
05:57 -17.9 °C -18.6 °C 34015.8 hPa Calm   7.7 km/h 92 % 0 mm
06:05 -17.9 °C -18.6 °C 34015.8 hPa West 5.1 km/h 5.1 km/h 92 % 0 mm
06:09 -18 °C -18.6 °C 34015.8 hPa West 2.3 km/h 2.6 km/h 92 % 0 mm
06:15 -17.9 °C -18.6 °C 34015.8 hPa WSW 2.3 km/h 7.7 km/h 92 % 0 mm
06:17 -17.9 °C -18.6 °C 34015.8 hPa Calm   7.7 km/h 92 % 0 mm
06:23 -17.9 °C -18.6 °C 34015.8 hPa Calm   2.6 km/h 92 % 0 mm
06:29 -17.9 °C -18.6 °C 34015.8 hPa West 2.3 km/h 7.7 km/h 92 % 0 mm
06:35 -17.9 °C -18.6 °C 34015.8 hPa WSW 5.1 km/h 5.1 km/h 92 % 0 mm
06:37 -17.9 °C -18.6 °C 34015.8 hPa NW 5.1 km/h 7.7 km/h 92 % 0 mm
06:43 -17.9 °C -18.6 °C 34015.8 hPa WNW 2.3 km/h 7.7 km/h 92 % 0 mm
06:51 -17.9 °C -18.6 °C 34029.3 hPa WNW 10.3 km/h 10.3 km/h 92 % 0 mm
06:57 -17.9 °C -18.6 °C 34029.3 hPa WNW 7.6 km/h 10.3 km/h 92 % 0 mm
07:03 -17.9 °C -18.6 °C 34029.3 hPa WNW 7.6 km/h 7.7 km/h 92 % 0 mm
07:09 -17.9 °C -18.6 °C 34029.3 hPa West 2.3 km/h 12.9 km/h 92 % 0 mm
07:15 -18 °C -18.6 °C 34029.3 hPa West 2.3 km/h 5.1 km/h 92 % 0 mm
07:19 -17.9 °C -18.5 °C 34029.3 hPa NW 2.3 km/h 5.1 km/h 93 % 0 mm
07:25 -17.9 °C -18.6 °C 34029.3 hPa Calm   2.6 km/h 92 % 0 mm
07:31 -18 °C -18.6 °C 34039.5 hPa Calm   5.1 km/h 93 % 0 mm
07:37 -17.9 °C -18.5 °C 34039.5 hPa Calm   7.7 km/h 93 % 0 mm
07:43 -18 °C -18.6 °C 34049.6 hPa SSW 2.3 km/h 2.6 km/h 92 % 0 mm
07:49 -18.1 °C -18.6 °C 34039.5 hPa Calm   5.1 km/h 93 % 0 mm
07:55 -18.1 °C -18.6 °C 34039.5 hPa Calm   2.6 km/h 93 % 0 mm
08:01 -18.1 °C -18.6 °C 34049.6 hPa SW 2.3 km/h 2.6 km/h 93 % 0 mm
08:07 -17.9 °C -18.5 °C 34049.6 hPa SSW 2.3 km/h 7.7 km/h 93 % 0 mm
08:13 -17.9 °C -18.4 °C 34049.6 hPa WSW 2.3 km/h 5.1 km/h 93 % 0 mm
08:19 -17.8 °C -18.4 °C 34049.6 hPa West 5.1 km/h 10.3 km/h 93 % 0 mm
08:25 -17.8 °C -18.3 °C 34049.6 hPa Calm   5.1 km/h 93 % 0 mm
08:32 -17.7 °C -18.3 °C 34049.6 hPa West 2.3 km/h 7.7 km/h 93 % 0 mm
08:38 -17.7 °C -18.2 °C 34063.2 hPa SW 2.3 km/h 7.7 km/h 93 % 0 mm
08:44 -17.7 °C -18.2 °C 34063.2 hPa SSW 2.3 km/h 5.1 km/h 93 % 0 mm
08:50 -17.7 °C -18.2 °C 34063.2 hPa SSE 2.3 km/h 5.1 km/h 93 % 0 mm
08:56 -17.8 °C -18.3 °C 34063.2 hPa SW 10.3 km/h 10.3 km/h 93 % 0 mm
09:02 -17.8 °C -18.3 °C 34063.2 hPa SW 5.1 km/h 15.6 km/h 93 % 0 mm
09:08 -17.9 °C -18.3 °C 34049.6 hPa West 10.3 km/h 18.2 km/h 94 % 0 mm
09:14 -17.7 °C -18.2 °C 34063.2 hPa WSW 12.7 km/h 18.2 km/h 94 % 0 mm
09:20 -17.7 °C -18.2 °C 34063.2 hPa WSW 12.7 km/h 20.8 km/h 94 % 0 mm
09:26 -17.6 °C -18.1 °C 34063.2 hPa WSW 15.6 km/h 18.2 km/h 94 % 0 mm
09:32 -17.6 °C -18.2 °C 34063.2 hPa SW 5.1 km/h 12.9 km/h 93 % 0 mm
09:38 -17.6 °C -18.2 °C 34063.2 hPa WSW 10.3 km/h 12.9 km/h 93 % 0 mm
09:44 -17.6 °C -18.2 °C 34063.2 hPa South 2.3 km/h 7.7 km/h 93 % 0 mm
09:50 -17.7 °C -18.2 °C 34073.3 hPa Calm   2.6 km/h 93 % 0 mm
09:56 -17.7 °C -18.2 °C 34073.3 hPa Calm   2.6 km/h 93 % 0 mm
10:02 -17.7 °C -18.2 °C 34073.3 hPa Calm     93 % 0 mm
10:08 -17.7 °C -18.3 °C 34073.3 hPa SSW 5.1 km/h 7.7 km/h 93 % 0 mm
10:14 -17.8 °C -18.4 °C 34073.3 hPa SSW 7.6 km/h 7.7 km/h 93 % 0 mm
10:20 -17.9 °C -18.3 °C 34073.3 hPa SSW 5.1 km/h 10.3 km/h 94 % 0 mm
10:26 -17.9 °C -18.4 °C 34073.3 hPa South 2.3 km/h 5.1 km/h 94 % 0 mm
10:32 -17.9 °C -18.4 °C 34073.3 hPa Calm   7.7 km/h 94 % 0 mm
10:38 -17.9 °C -18.3 °C 34073.3 hPa SSE 2.3 km/h 7.7 km/h 95 % 0 mm
10:44 -17.7 °C -18.1 °C 34073.3 hPa Calm   5.1 km/h 95 % 0 mm
10:50 -17.6 °C -18.1 °C 34073.3 hPa Calm   15.6 km/h 94 % 0 mm
10:56 -17.6 °C -18.1 °C 34086.9 hPa WSW 2.3 km/h 12.9 km/h 94 % 0 mm
11:02 -17.6 °C -18.1 °C 34073.3 hPa SW 2.3 km/h 2.6 km/h 94 % 0 mm
11:08 -17.6 °C -18.1 °C 34086.9 hPa West 12.7 km/h 15.6 km/h 93 % 0 mm
11:14 -17.4 °C -18 °C 34086.9 hPa WSW 10.3 km/h 20.8 km/h 93 % 0 mm
11:17 -17.4 °C -18 °C 34086.9 hPa SW 10.3 km/h 18.2 km/h 93 % 0 mm
11:24 -17.4 °C -17.9 °C 34086.9 hPa WNW 5.1 km/h 15.6 km/h 93 % 0 mm
11:26 -17.3 °C -17.9 °C 34086.9 hPa SSW 2.3 km/h 12.9 km/h 93 % 0 mm
11:32 -17.3 °C -18 °C 34086.9 hPa WSW 2.3 km/h 15.6 km/h 92 % 0 mm
11:38 -17.2 °C -17.9 °C 34086.9 hPa Calm   10.3 km/h 92 % 0 mm
11:44 -17.2 °C -17.9 °C 34086.9 hPa West 10.3 km/h 12.9 km/h 91 % 0 mm
11:50 -17.1 °C -17.8 °C 34086.9 hPa WSW 2.3 km/h 2.6 km/h 92 % 0 mm
11:56 -17.1 °C -17.8 °C 34097 hPa SW 2.3 km/h 7.7 km/h 91 % 0 mm
12:02 -17.1 °C -17.8 °C 34097 hPa SW 5.1 km/h 5.1 km/h 91 % 0 mm
12:08 -17.1 °C -17.8 °C 34097 hPa SW 2.3 km/h 7.7 km/h 91 % 0 mm
12:14 -17.1 °C -17.8 °C 34086.9 hPa SW 2.3 km/h 7.7 km/h 91 % 0 mm
12:20 -17.1 °C -17.8 °C 34097 hPa SW 7.6 km/h 10.3 km/h 91 % 0 mm
12:26 -17.1 °C -17.8 °C 34086.9 hPa SW 5.1 km/h 10.3 km/h 91 % 0 mm
12:32 -17.1 °C -17.8 °C 34097 hPa West 7.6 km/h 15.6 km/h 91 % 0 mm
12:40 -17.1 °C -17.8 °C 34097 hPa SSW 10.3 km/h 12.9 km/h 91 % 0 mm
12:46 -17 °C -17.7 °C 34097 hPa SSW 2.3 km/h 10.3 km/h 91 % 0 mm
12:52 -17 °C -17.7 °C 34086.9 hPa SW 5.1 km/h 10.3 km/h 91 % 0 mm
12:58 -16.9 °C -17.7 °C 34086.9 hPa West 2.3 km/h 12.9 km/h 91 % 0 mm
13:04 -16.9 °C -17.6 °C 34086.9 hPa West 10.3 km/h 18.2 km/h 91 % 0 mm
13:10 -16.8 °C -17.5 °C 34086.9 hPa WSW 7.6 km/h 12.9 km/h 91 % 0 mm
13:16 -16.7 °C -17.6 °C 34073.3 hPa Calm   12.9 km/h 90 % 0 mm
13:22 -16.6 °C -17.4 °C 34073.3 hPa SW 5.1 km/h 12.9 km/h 90 % 0 mm
13:28 -16.4 °C -17.3 °C 34073.3 hPa WSW 10.3 km/h 20.8 km/h 89 % 0 mm
13:34 -16.3 °C -17.2 °C 34073.3 hPa SSW 5.1 km/h 15.6 km/h 89 % 7.62 mm
13:40 -16.2 °C -17.2 °C 34073.3 hPa WSW 10.3 km/h 15.6 km/h 88 % 7.62 mm
13:46 -16 °C -17 °C 34073.3 hPa SW 2.3 km/h 7.7 km/h 88 % 7.62 mm
13:52 -15.9 °C -17.1 °C 34073.3 hPa SW 7.6 km/h 15.6 km/h 86 % 7.62 mm
13:58 -15.9 °C -17.1 °C 34086.9 hPa WNW 7.6 km/h 12.9 km/h 86 % 7.62 mm
14:04 -15.9 °C -17.2 °C 34073.3 hPa WSW 10.3 km/h 18.2 km/h 85 % 7.62 mm
14:10 -15.9 °C -17.1 °C 34086.9 hPa West 12.7 km/h 23.3 km/h 86 % 7.62 mm
14:16 -15.9 °C -17 °C 34086.9 hPa WSW 7.6 km/h 15.6 km/h 87 % 7.62 mm
14:20 -15.9 °C -17.1 °C 34086.9 hPa West 12.7 km/h 23.3 km/h 86 % 7.62 mm
14:26 -15.9 °C -17 °C 34086.9 hPa WSW 17.9 km/h 20.8 km/h 87 % 7.62 mm
14:32 -15.8 °C -17 °C 34097 hPa SW 15.6 km/h 23.3 km/h 86 % 7.62 mm
14:38 -15.8 °C -16.9 °C 34097 hPa SW 15.6 km/h 18.2 km/h 86 % 7.62 mm
14:44 -15.9 °C -17.1 °C 34097 hPa SW 12.7 km/h 18.2 km/h 86 % 7.62 mm
14:50 -15.8 °C -16.9 °C 34097 hPa South 5.1 km/h 18.2 km/h 87 % 7.62 mm
14:56 -15.7 °C -16.8 °C 34097 hPa SSE 2.3 km/h 10.3 km/h 87 % 7.62 mm
15:02 -15.6 °C -16.8 °C 34097 hPa WSW 10.3 km/h 10.3 km/h 86 % 7.62 mm
15:08 -15.6 °C -16.8 °C 34107.2 hPa SW 5.1 km/h 12.9 km/h 85 % 7.62 mm
15:14 -15.5 °C -16.9 °C 34107.2 hPa WSW 10.3 km/h 18.2 km/h 84 % 7.62 mm
15:20 -15.6 °C -16.8 °C 34107.2 hPa West 7.6 km/h 15.6 km/h 85 % 7.62 mm
15:26 -15.7 °C -16.9 °C 34107.2 hPa WSW 5.1 km/h 18.2 km/h 85 % 7.62 mm
15:32 -15.7 °C -17 °C 34107.2 hPa Calm   10.3 km/h 85 % 0 mm
15:40 -15.7 °C -16.9 °C 34107.2 hPa Calm   10.3 km/h 86 % 0 mm
15:46 -15.7 °C -16.9 °C 34120.7 hPa Calm   5.1 km/h 86 % 0 mm
15:53 -15.7 °C -16.8 °C 34120.7 hPa SSW 2.3 km/h 2.6 km/h 86 % 0 mm
15:59 -15.8 °C -16.9 °C 34120.7 hPa SW 7.6 km/h 10.3 km/h 86 % 0 mm
16:05 -15.9 °C -17 °C 34120.7 hPa SW 2.3 km/h 15.6 km/h 87 % 0 mm
16:11 -15.9 °C -17.1 °C 34120.7 hPa SSW 7.6 km/h 15.6 km/h 87 % 0 mm
16:15 -15.9 °C -17.1 °C 34120.7 hPa SSW 5.1 km/h 12.9 km/h 87 % 0 mm
16:27 -15.9 °C -17 °C 34130.9 hPa SSW 2.3 km/h 5.1 km/h 87 % 0 mm
16:33 -15.8 °C -16.9 °C 34130.9 hPa Calm   2.6 km/h 87 % 0 mm
16:39 -15.8 °C -16.9 °C 34130.9 hPa SSW 2.3 km/h 2.6 km/h 87 % 0 mm
16:45 -15.9 °C -17.1 °C 34130.9 hPa SSW 2.3 km/h 5.1 km/h 87 % 0 mm
16:47 -16.1 °C -17.2 °C 34130.9 hPa SW 2.3 km/h 5.1 km/h 87 % 0 mm
16:53 -16.2 °C -17.2 °C 34144.4 hPa SSW 2.3 km/h 7.7 km/h 88 % 0 mm
16:59 -16.3 °C -17.2 °C 34144.4 hPa SW 5.1 km/h 5.1 km/h 89 % 0 mm
17:05 -16.3 °C -17.2 °C 34144.4 hPa SSW 5.1 km/h 5.1 km/h 89 % 0 mm
17:11 -16.4 °C -17.3 °C 34144.4 hPa SW 2.3 km/h 7.7 km/h 89 % 0 mm
17:17 -16.5 °C -17.4 °C 34144.4 hPa SW 5.1 km/h 10.3 km/h 89 % 0 mm
17:23 -16.5 °C -17.3 °C 34154.6 hPa WSW 5.1 km/h 7.7 km/h 90 % 0 mm
17:25 -16.6 °C -17.4 °C 34154.6 hPa WSW 2.3 km/h 5.1 km/h 90 % 0 mm
17:31 -16.6 °C -17.4 °C 34154.6 hPa WSW 2.3 km/h 10.3 km/h 90 % 0 mm
17:37 -16.6 °C -17.4 °C 34154.6 hPa WSW 5.1 km/h 5.1 km/h 90 % 0 mm
17:43 -16.7 °C -17.4 °C 34164.7 hPa SW 2.3 km/h 7.7 km/h 91 % 0 mm
17:45 -16.7 °C -17.4 °C 34164.7 hPa Calm   7.7 km/h 91 % 0 mm
17:51 -16.7 °C -17.4 °C 34164.7 hPa SW 2.3 km/h 5.1 km/h 91 % 0 mm
17:57 -16.7 °C -17.4 °C 34164.7 hPa WSW 5.1 km/h 7.7 km/h 91 % 0 mm
18:01 -16.7 °C -17.4 °C 34164.7 hPa WSW 2.3 km/h 5.1 km/h 91 % 0 mm
18:07 -16.8 °C -17.5 °C 34164.7 hPa WSW 2.3 km/h 10.3 km/h 91 % 0 mm
18:13 -16.8 °C -17.6 °C 34178.3 hPa WSW 2.3 km/h 5.1 km/h 91 % 0 mm
18:19 -16.9 °C -17.6 °C 34178.3 hPa West 5.1 km/h 5.1 km/h 92 % 0 mm
18:25 -16.9 °C -17.6 °C 34178.3 hPa West 2.3 km/h 7.7 km/h 92 % 0 mm
18:31 -16.9 °C -17.6 °C 34178.3 hPa West 2.3 km/h 7.7 km/h 92 % 0 mm
18:35 -16.9 °C -17.6 °C 34178.3 hPa West 5.1 km/h 5.1 km/h 92 % 0 mm
18:37 -16.9 °C -17.6 °C 34188.4 hPa WSW 5.1 km/h 10.3 km/h 92 % 0 mm
18:49 -16.9 °C -17.6 °C 34188.4 hPa West 5.1 km/h 7.7 km/h 92 % 0 mm
18:55 -16.9 °C -17.6 °C 34188.4 hPa West 5.1 km/h 7.7 km/h 92 % 0 mm
19:01 -16.9 °C -17.6 °C 34198.6 hPa WSW 5.1 km/h 10.3 km/h 92 % 0 mm
19:07 -16.9 °C -17.5 °C 34198.6 hPa WSW 2.3 km/h 7.7 km/h 93 % 0 mm
19:13 -16.9 °C -17.6 °C 34198.6 hPa West 2.3 km/h 5.1 km/h 92 % 0 mm
19:19 -16.9 °C -17.5 °C 34198.6 hPa West 5.1 km/h 12.9 km/h 93 % 0 mm
19:25 -16.9 °C -17.5 °C 34198.6 hPa West 5.1 km/h 12.9 km/h 93 % 0 mm
19:31 -17 °C -17.6 °C 34198.6 hPa Calm   5.1 km/h 93 % 0 mm
19:39 -17 °C -17.6 °C 34212.1 hPa Calm   5.1 km/h 93 % 0 mm
19:45 -17.1 °C -17.8 °C 34212.1 hPa Calm     92 % 0 mm
19:51 -17.3 °C -18 °C 34222.3 hPa Calm   2.6 km/h 92 % 0 mm
19:57 -17.4 °C -18 °C 34222.3 hPa SSW 2.3 km/h 5.1 km/h 93 % 0 mm
20:03 -17.6 °C -18.1 °C 34222.3 hPa SSE 2.3 km/h 5.1 km/h 93 % 0 mm
20:09 -17.6 °C -18.1 °C 34222.3 hPa Calm   2.6 km/h 94 % 0 mm
20:17 -17.7 °C -18.2 °C 34222.3 hPa Calm     94 % 0 mm
20:23 -17.7 °C -18.2 °C 34222.3 hPa Calm   5.1 km/h 94 % 0 mm
20:28 -17.8 °C -18.2 °C 34222.3 hPa SSW 2.3 km/h 5.1 km/h 94 % 0 mm
20:33 -17.7 °C -18.1 °C 34222.3 hPa Calm   2.6 km/h 95 % 0 mm
20:39 -17.7 °C -18.1 °C 34222.3 hPa Calm     95 % 0 mm
20:42 -17.7 °C -18.1 °C 34222.3 hPa Calm     95 % 0 mm
20:48 -17.8 °C -18.2 °C 34222.3 hPa Calm   2.6 km/h 95 % 0 mm
20:56 -17.7 °C -18.1 °C 34222.3 hPa Calm   2.6 km/h 95 % 0 mm
20:58 -17.7 °C -18.1 °C 34222.3 hPa Calm     95 % 0 mm
21:04 -17.7 °C -18.1 °C 34235.8 hPa Calm     95 % 0 mm
21:10 -17.8 °C -18.2 °C 34235.8 hPa Calm     95 % 0 mm
21:16 -17.9 °C -18.3 °C 34235.8 hPa Calm     95 % 0 mm
21:22 -17.9 °C -18.3 °C 34235.8 hPa Calm   2.6 km/h 95 % 0 mm
21:28 -17.9 °C -18.3 °C 34235.8 hPa Calm     95 % 0 mm
21:32 -17.9 °C -18.3 °C 34235.8 hPa Calm     95 % 0 mm
21:38 -18 °C -18.4 °C 34246 hPa Calm     95 % 0 mm
21:44 -18.1 °C -18.5 °C 34246 hPa Calm     95 % 0 mm
21:50 -18.2 °C -18.6 °C 34246 hPa Calm     95 % 0 mm
21:56 -18.1 °C -18.4 °C 34246 hPa WSW 2.3 km/h 5.1 km/h 96 % 0 mm
21:58 -18.1 °C -18.4 °C 34246 hPa Calm   2.6 km/h 96 % 0 mm
22:04 -17.9 °C -18.3 °C 34246 hPa Calm   2.6 km/h 96 % 0 mm
22:10 -17.9 °C -18.2 °C 34256.2 hPa SW 2.3 km/h 5.1 km/h 96 % 0 mm
22:14 -17.9 °C -18.2 °C 34256.2 hPa Calm   5.1 km/h 96 % 0 mm
22:16 -17.8 °C -18.2 °C 34256.2 hPa Calm   2.6 km/h 96 % 0 mm
22:24 -17.9 °C -18.2 °C 34256.2 hPa Calm   2.6 km/h 96 % 0 mm
22:30 -17.9 °C -18.3 °C 34256.2 hPa Calm   2.6 km/h 96 % 0 mm
22:36 -18 °C -18.3 °C 34256.2 hPa Calm   2.6 km/h 96 % 0 mm
22:42 -18 °C -18.3 °C 34256.2 hPa Calm     96 % 0 mm
22:50 -18 °C -18.3 °C 34256.2 hPa Calm   2.6 km/h 96 % 0 mm
22:56 -18.1 °C -18.4 °C 34256.2 hPa Calm   2.6 km/h 96 % 0 mm
23:02 -18.2 °C -18.5 °C 34256.2 hPa Calm   2.6 km/h 96 % 0 mm
23:08 -18.2 °C -18.6 °C 34256.2 hPa Calm     96 % 0 mm
23:14 -18.3 °C -18.6 °C 34269.7 hPa Calm   2.6 km/h 96 % 0 mm
23:20 -18.3 °C -18.6 °C 34269.7 hPa Calm   2.6 km/h 96 % 0 mm
23:26 -18.2 °C -18.4 °C 34269.7 hPa Calm   2.6 km/h 97 % 0 mm
23:32 -18.1 °C -18.3 °C 34279.9 hPa Calm   2.6 km/h 97 % 0 mm
23:38 -18.2 °C -18.5 °C 34279.9 hPa Calm     96 % 0 mm
23:44 -18.2 °C -18.5 °C 34293.4 hPa Calm   2.6 km/h 96 % 0 mm
23:50 -18.2 °C -18.6 °C 34293.4 hPa Calm     96 % 0 mm
23:54 -18.3 °C -18.6 °C 34293.4 hPa Calm     96 % 0 mm
Meteo18
Compliments of Weather Underground - 4 mb

Script developed by  Jim McMurry - jmcmurry@mwt.net Adapted for the template by  Wim van der Kuil - Leuven-Template.eu

You find our weather info also at:

European Weather Network

Weather Underground

Equipment we use:

Weather-station
Davis Vue

Weather-program
Meteobridge

Weather-server
Raspberry PI 2 B+

Provider
1 and 1

Davis Vue

Meteobridge

Raspberry PI 2 B+

1 and 1